Location: Unspecified
(35.6961°N, 0.0000°E)
Time: 00:34:19
(UTC+00:00)

Vanguard 3 - Pass Details

Date: 28 May 2019
Orbit: 508 x 3263 km, 33.3° (Epoch: 25 June)

Event Time Altitude Azimuth Distance (km) Brightness Sun altitude
Rises 02:30:45 0° 276° (W) 5,153 10.9 -22.3°
Enters shadow 02:32:31 - 271° (W) 4,829 10.7 -22.1°
Reaches altitude 10° 02:34:22 10° 265° (W) 4,536 - -21.9°
Exits shadow 02:41:33 26° 232° (SW) 3,988 10.0 -20.9°
Maximum altitude 02:45:06 29° 212° (SSW) 4,099 10.1 -20.4°
Drops below altitude 10° 02:59:34 10° 162° (SSE) 6,120 11.3 -18.4°
Sets 03:05:41 0° 153° (SSE) 7,219 11.8 -17.6°
